Location: Laan Hart van Zuid
(52.2563°N, 6.7904°E)
Time: 10:37:42
(UTC+02:00)

ISS - Pass Details

Date: 23 May 2024
Orbit: 411 x 419 km, 51.6° (Epoch: 29 May)

Event Time Altitude Azimuth Distance (km) Brightness Sun altitude
Rises 22:26:28 0° 282° (WNW) 2,372 1.1 -6.8°
Reaches altitude 10° 22:28:39 10° 274° (W) 1,504 -0.2 -7.0°
Maximum altitude 22:31:49 38° 205° (SSW) 654 -3.0 -7.3°
Enters shadow 22:34:54 10° 136° (SE) 1,471 -1.7 -7.6°
